Norman, Oklahoma, United States (73019)
Lat: 35.22N, Lon: 97.44W
Wx Zone: OKZ029
Local Info
Past Weather Observations for Today

NOTE: This archive is for the closest National Weather Service station to Norman. Information may differ from the station used for current weather conditions.

Click here for Long-term Archive

Time Weather Temperature Dewpoint Humidity Pressure Winds Precip Visibility
20:35
Overcast
Light Rain
63°F / 17°C 63°F / 17°C 100% 30.15 in
(1021 mb)
Calm 0.02 in
(0.51 mm)
10SM
20:10
Overcast
Light Rain
63°F / 17°C 63°F / 17°C 100% 30.12 in
(1020 mb)
NW 3.5 mph
(NW 6 kph)
- 10SM
19:55
Overcast
Light Rain
63°F / 17°C 63°F / 17°C 100% 30.12 in
(1020 mb)
NW 3.5 mph
(NW 6 kph)
- 10SM
19:35
Overcast
64°F / 18°C 64°F / 18°C 100% 30.12 in
(1020 mb)
W 4.6 mph
(W 7 kph)
- 10SM
19:15
Overcast
Drizzle
64°F / 18°C 63°F / 17°C 94% 30.12 in
(1020 mb)
W 4.6 mph
(W 7 kph)
- 10SM
18:55
Overcast
Rain
64°F / 18°C 63°F / 17°C 94% 30.12 in
(1020 mb)
SSW 9.2 mph
(SSW 15 kph)
0.01 in
(0.25 mm)
10SM
18:35
Overcast
Drizzle
70°F / 21°C 61°F / 16°C 73% 30.12 in
(1020 mb)
SW 10.4 mph
(SW 17 kph)
- 10SM
18:15
Overcast
Drizzle
70°F / 21°C 61°F / 16°C 73% 30.12 in
(1020 mb)
SSE 9.2 mph
(SSE 15 kph)
- 10SM
17:55
Overcast
70°F / 21°C 61°F / 16°C 73% 30.12 in
(1020 mb)
S 4.6 mph
(S 7 kph)
- 10SM
17:35
Mostly Cloudy
70°F / 21°C 59°F / 15°C 69% 30.09 in
(1019 mb)
SSE 4.6 mph
(SSE 7 kph)
- 10SM
17:15
Partly Cloudy
72°F / 22°C 59°F / 15°C 65% 30.09 in
(1019 mb)
SSE 4.6 mph
(SSE 7 kph)
- 10SM
16:55
Partly Cloudy
73°F / 23°C 59°F / 15°C 61% 30.09 in
(1019 mb)
SSE 8.1 mph
(SSE 13 kph)
- 10SM
16:35
Mostly Cloudy
73°F / 23°C 59°F / 15°C 61% 30.09 in
(1019 mb)
S 5.8 mph
(S 9 kph)
- 10SM
16:15
Clear
73°F / 23°C 59°F / 15°C 61% 30.09 in
(1019 mb)
S 9.2 mph
(S 15 kph)
- 10SM
15:55
Clear
73°F / 23°C 59°F / 15°C 61% 30.09 in
(1019 mb)
S 8.1 mph
(S 13 kph)
- 10SM
15:35
Clear
73°F / 23°C 59°F / 15°C 61% 30.09 in
(1019 mb)
S 9.2 mph
(S 15 kph)
- 10SM
15:15
Partly Cloudy
77°F / 25°C 59°F / 15°C 54% 30.09 in
(1019 mb)
S 12.7 mph
(S 20 kph)
- 10SM
14:55
Clear
73°F / 23°C 59°F / 15°C 61% 30.09 in
(1019 mb)
SSE 6.9 mph
(SSE 11 kph)
- 10SM
14:35
Partly Cloudy
75°F / 24°C 59°F / 15°C 57% 30.09 in
(1019 mb)
SSE 11.5 mph
(SSE 19 kph)
- 10SM
14:15
Partly Cloudy
75°F / 24°C 61°F / 16°C 61% 30.09 in
(1019 mb)
SSE 10.4 mph
(SSE 17 kph)
- 10SM
13:55
Partly Cloudy
77°F / 25°C 61°F / 16°C 57% 30.12 in
(1020 mb)
SSE 9.2 mph
(SSE 15 kph)
- 10SM
13:35
Mostly Cloudy
73°F / 23°C 61°F / 16°C 65% 30.12 in
(1020 mb)
S 11.5 mph
(S 19 kph)
- 10SM
13:15
Partly Cloudy
73°F / 23°C 61°F / 16°C 65% 30.12 in
(1020 mb)
S 10.4 mph
(S 17 kph)
- 10SM
12:55
Partly Cloudy
75°F / 24°C 61°F / 16°C 61% 30.12 in
(1020 mb)
S 5.8 mph
(S 9 kph)
- 10SM
12:35
Mostly Cloudy
73°F / 23°C 61°F / 16°C 65% 30.15 in
(1021 mb)
SSE 9.2 mph
(SSE 15 kph)
- 10SM
12:15
Mostly Cloudy
72°F / 22°C 61°F / 16°C 69% 30.15 in
(1021 mb)
S 8.1 mph
(S 13 kph)
- 10SM
11:55
Partly Cloudy
73°F / 23°C 63°F / 17°C 69% 30.15 in
(1021 mb)
S 12.7 mph
(S 20 kph)
- 10SM
11:35
Mostly Cloudy
73°F / 23°C 63°F / 17°C 69% 30.18 in
(1022 mb)
S 15 mph
(S 24 kph)
- 10SM
11:15
Mostly Cloudy
72°F / 22°C 63°F / 17°C 73% 30.18 in
(1022 mb)
S 11.5 mph
(S 19 kph)
- 10SM
10:55
Partly Cloudy
73°F / 23°C 63°F / 17°C 69% 30.18 in
(1022 mb)
S 10.4 mph
(S 17 kph)
- 10SM
10:35
Clear
72°F / 22°C 63°F / 17°C 73% 30.18 in
(1022 mb)
SSE 8.1 mph
(SSE 13 kph)
- 10SM
10:15
Clear
70°F / 21°C 63°F / 17°C 78% 30.18 in
(1022 mb)
S 9.2 mph
(S 15 kph)
- 10SM
09:55
Clear
70°F / 21°C 63°F / 17°C 78% 30.18 in
(1022 mb)
SSE 8.1 mph
(SSE 13 kph)
- 10SM
09:35
Clear
68°F / 20°C 61°F / 16°C 78% 30.18 in
(1022 mb)
SSE 10.4 mph
(SSE 17 kph)
- 10SM
09:15
Clear
68°F / 20°C 61°F / 16°C 78% 30.18 in
(1022 mb)
SSE 9.2 mph
(SSE 15 kph)
- 10SM
08:55
Clear
66°F / 19°C 61°F / 16°C 83% 30.18 in
(1022 mb)
SSE 8.1 mph
(SSE 13 kph)
- 10SM
08:35
Clear
64°F / 18°C 61°F / 16°C 88% 30.18 in
(1022 mb)
S 5.8 mph
(S 9 kph)
- 10SM
08:10
Clear
63°F / 17°C 63°F / 17°C 100% 30.18 in
(1022 mb)
S 4.6 mph
(S 7 kph)
- 7SM
07:55
Clear
Fog And Mist
61°F / 16°C 61°F / 16°C 100% 30.15 in
(1021 mb)
S 3.5 mph
(S 6 kph)
- 4SM
07:35
Clear
Fog And Mist
59°F / 15°C 59°F / 15°C 100% 30.15 in
(1021 mb)
S 4.6 mph
(S 7 kph)
- 4SM
07:15
Clear
Fog And Mist
57°F / 14°C 57°F / 14°C 100% 30.15 in
(1021 mb)
SSE 4.6 mph
(SSE 7 kph)
- 4SM
06:55
Clear
Fog And Mist
55°F / 13°C 55°F / 13°C 100% 30.15 in
(1021 mb)
SSE 3.5 mph
(SSE 6 kph)
- 4SM
06:35
Clear
Fog And Mist
55°F / 13°C 55°F / 13°C 100% 30.15 in
(1021 mb)
S 3.5 mph
(S 6 kph)
- 5SM
06:15
Clear
55°F / 13°C 55°F / 13°C 100% 30.12 in
(1020 mb)
S 4.6 mph
(S 7 kph)
- 7SM
05:55
Clear
55°F / 13°C 55°F / 13°C 100% 30.12 in
(1020 mb)
S 3.5 mph
(S 6 kph)
- 7SM
05:35
Clear
55°F / 13°C 55°F / 13°C 100% 30.12 in
(1020 mb)
SSE 3.5 mph
(SSE 6 kph)
- 7SM
05:15
Clear
55°F / 13°C 55°F / 13°C 100% 30.12 in
(1020 mb)
SSE 4.6 mph
(SSE 7 kph)
- 7SM
04:55
Clear
57°F / 14°C 57°F / 14°C 100% 30.12 in
(1020 mb)
S 3.5 mph
(S 6 kph)
- 7SM
04:35
Clear
55°F / 13°C 55°F / 13°C 100% 30.09 in
(1019 mb)
S 3.5 mph
(S 6 kph)
- 7SM
04:15
Clear
55°F / 13°C 55°F / 13°C 100% 30.09 in
(1019 mb)
S 3.5 mph
(S 6 kph)
- 7SM
03:55
Clear
57°F / 14°C 57°F / 14°C 100% 30.09 in
(1019 mb)
S 3.5 mph
(S 6 kph)
- 10SM
03:35
Clear
55°F / 13°C 55°F / 13°C 100% 30.09 in
(1019 mb)
S 4.6 mph
(S 7 kph)
- 10SM
03:15
Clear
57°F / 14°C 57°F / 14°C 100% 30.09 in
(1019 mb)
S 5.8 mph
(S 9 kph)
- 10SM
02:55
Clear
57°F / 14°C 57°F / 14°C 100% 30.09 in
(1019 mb)
S 5.8 mph
(S 9 kph)
- 10SM
02:35
Clear
59°F / 15°C 59°F / 15°C 100% 30.09 in
(1019 mb)
S 4.6 mph
(S 7 kph)
- 10SM
02:15
Clear
59°F / 15°C 59°F / 15°C 100% 30.09 in
(1019 mb)
S 3.5 mph
(S 6 kph)
- 10SM
01:50
Clear
59°F / 15°C 59°F / 15°C 100% 30.09 in
(1019 mb)
S 4.6 mph
(S 7 kph)
- 10SM
01:35
Clear
59°F / 15°C 59°F / 15°C 100% 30.09 in
(1019 mb)
S 4.6 mph
(S 7 kph)
- 10SM
01:15
Clear
59°F / 15°C 59°F / 15°C 100% 30.09 in
(1019 mb)
S 5.8 mph
(S 9 kph)
- 10SM
00:55
Clear
61°F / 16°C 59°F / 15°C 94% 30.09 in
(1019 mb)
S 4.6 mph
(S 7 kph)
- 10SM
00:35
Clear
61°F / 16°C 59°F / 15°C 94% 30.09 in
(1019 mb)
S 5.8 mph
(S 9 kph)
- 10SM
00:15
Clear
61°F / 16°C 59°F / 15°C 94% 30.09 in
(1019 mb)
SSE 6.9 mph
(SSE 11 kph)
- 10SM
Time Weather Temperature Dewpoint Humidity Pressure Winds Precip Visibility


Weather for websites

WeatherForYou.com, LLC is not responsible for any damages or problems caused by this service. Current weather conditions are obtained from the closest station including government and personal stations which may have varying degrees of accuracy. Weather forecasts are derived from the NOAA NDFD. Like all things, this site belongs to Jesus Christ... He just trusts me to maintain it. If you have any questions or comments email webmaster@weatherforyou.com

Copyright © 2014, WeatherForYou.com LLC. All rights reserved.